Location: *
(52.2090°N, 4.1550°W)
Time: 20:16:25
(UTC+00:00)

Terra - Pass Details

Date: 19 July 2019
Orbit: 701 x 703 km, 98.2° (Epoch: 25 August)

Event Time Altitude Azimuth Distance (km) Brightness Sun altitude
Exits shadow 22:10:59 14° 171° (S) 1,923 3.5 -11.6°
Maximum altitude 22:15:08 74° 256° (WSW) 737 2.0 -11.9°
Drops below altitude 10° 22:19:55 10° 342° (NNW) 2,185 5.8 -12.3°
Sets 22:22:12 0° 345° (NNW) 3,108 6.9 -12.4°
